This is the latest recevied weather packets stored in our database for station/object WR9A-13. If no packets are shown the sender has not sent any weather packets the latest 10 day(s).
| Time | Temp. | Humidity | Pressure | Rain* | Wind** | Luminosity | Snow |
|---|---|---|---|---|---|---|---|
| 1777508443 | 12.78° C | 71% | 1014.6 hPa | 0.25 mm | - | - | - |
| 1777508131 | 12.78° C | 71% | 1014.6 hPa | 0.25 mm | - | - | - |
| 1777507818 | 12.78° C | 70% | 1014.5 hPa | 0.25 mm | - | - | - |
| 1777507515 | 13.33° C | 70% | 1014.6 hPa | 0.25 mm | - | - | - |
| 1777507222 | 13.33° C | 69% | 1014.4 hPa | 0.25 mm | - | - | - |
| 1777506929 | 13.33° C | 69% | 1014.5 hPa | 0.25 mm | - | - | - |
| 1777506624 | 13.33° C | 70% | 1014.6 hPa | 0.25 mm | - | - | - |
| 1777506332 | 13.33° C | 70% | 1014.5 hPa | 0.25 mm | - | - | - |
| 1777506028 | 13.33° C | 69% | 1014.5 hPa | 0.25 mm | - | - | - |
| 1777505716 | 13.89° C | 68% | 1014.5 hPa | 0.25 mm | - | - | - |
| 1777505432 | 13.89° C | 68% | 1014.5 hPa | 0.25 mm | - | - | - |
| 1777505120 | 13.89° C | 69% | 1014.4 hPa | 0 mm | - | - | - |
| 1777504818 | 13.89° C | 68% | 1014.4 hPa | 0 mm | - | - | - |
| 1777504526 | 13.89° C | 68% | 1014.3 hPa | 0 mm | - | - | - |
| 1777504222 | 14.44° C | 66% | 1014.3 hPa | 0 mm | - | - | - |
| 1777503940 | 14.44° C | 66% | 1014.3 hPa | 0 mm | - | - | - |
| 1777503621 | 14.44° C | 66% | 1014.4 hPa | 0 mm | - | - | - |
| 1777503339 | 14.44° C | 64% | 1014.3 hPa | 0 mm | - | - | - |
| 1777503027 | 14.44° C | 64% | 1014.3 hPa | 0 mm | - | - | - |
| 1777502724 | 15° C | 62% | 1014.5 hPa | 0 mm | - | - | - |
| 1777502432 | 15° C | 59% | 1014.2 hPa | 0 mm | - | - | - |
| 1777502129 | 15° C | 53% | 1014.1 hPa | 0 mm | - | - | - |
| 1777501816 | 15.56° C | 53% | 1014 hPa | 0 mm | - | - | - |
| 1777501533 | 15.56° C | 55% | 1014 hPa | 0 mm | - | - | - |
| 1777501220 | 15° C | 55% | 1014 hPa | 0 mm | - | - | - |
* Rain latest hour (hover to see other rain measurements)
** Current wind speed in m/s (hover to see current wind gust speed)